This demonstration page uses our WeatherBlox Daily Observations layout. Learn more.

Left ArrowRight Arrow

36.17497, -115.13722

Hourly Observations for September 25, 2022

Temp ( °F °C ) Dew Point ( °F °C ) Humidity (%) Winds ( mph kmh ) Pressure ( in mb ) Visibility ( mi km ) Precip ( " mm )
12:53 am 00:53 Clear 78 25.6 35 1.7 21 21 WNW 8 13 30.02 1017 10 16 0.00 0.00
1:53 am 01:53 Clear 78 25.6 34 1.1 20 20 ENE 5 7 30.03 1017 10 16 0.00 0.00
2:53 am 02:53 Clear 77 25 35 1.7 22 22 WSW 3 6 30.03 1017 10 16 0.00 0.00
3:53 am 03:53 Clear 74 23.3 37 2.8 26 26 W 7 11 30.03 1017 10 16 0.00 0.00
4:53 am 04:53 Clear 79 26.1 36 2.2 21 21 WSW 6 9 30.03 1017 10 16 0.00 0.00
5:53 am 05:53 Clear 77 25 36 2.2 23 23 W 6 9 30.04 1017 10 16 0.00 0.00
6:53 am 06:53 Sunny 76 24.4 36 2.2 23 23 Calm 30.06 1018 10 16 0.00 0.00
7:53 am 07:53 Sunny 76 24.4 37 2.8 24 24 Calm 30.09 1019 10 16 0.00 0.00
8:53 am 08:53 Sunny 82 27.8 37 2.8 20 20 Calm 30.09 1019 10 16 0.00 0.00
9:53 am 09:53 Sunny 87 30.6 31 -0.6 13 13 WNW 5 7 30.10 1019 10 16 0.00 0.00
10:53 am 10:53 Sunny 90 32.2 33 0.6 13 13 ENE 5 7 30.09 1019 10 16 0.00 0.00
11:53 am 11:53 Sunny 92 33.3 29 -1.7 11 11 VRB 3 6 30.07 1018 10 16 0.00 0.00
12:53 pm 12:53 Sunny 95 35 29 -1.7 10 10 Calm 30.05 1018 10 16 0.00 0.00
1:53 pm 13:53 Sunny 96 35.6 27 -2.8 9 9 Calm 30.01 1016 10 16 0.00 0.00
2:53 pm 14:53 Sunny 96 35.6 26 -3.3 8 8 S 6 9 29.98 1015 10 16 0.00 0.00
3:53 pm 15:53 Sunny 97 36.1 25 -3.9 8 8 ENE 5 7 29.96 1015 10 16 0.00 0.00
4:53 pm 16:53 Sunny 97 36.1 25 -3.9 8 8 E 7 11 29.95 1014 10 16 0.00 0.00
5:53 pm 17:53 Sunny 96 35.6 24 -4.4 8 8 E 9 15 29.95 1014 10 16 0.00 0.00
6:53 pm 18:53 Clear 91 32.8 23 -5 8 8 E 5 7 29.96 1015 10 16 0.00 0.00
7:53 pm 19:53 Clear 89 31.7 23 -5 9 9 Calm 29.97 1015 10 16 0.00 0.00
8:53 pm 20:53 Clear 87 30.6 26 -3.3 11 11 WNW 6 9 29.98 1015 10 16 0.00 0.00
9:53 pm 21:53 Clear 82 27.8 28 -2.2 14 14 NW 5 7 29.98 1015 10 16 0.00 0.00
10:53 pm 22:53 Clear 80 26.7 28 -2.2 15 15 WNW 9 15 29.98 1015 10 16 0.00 0.00
11:53 pm 23:53 Clear 79 26.1 27 -2.8 15 15 WNW 7 11 29.98 1015 10 16 0.00 0.00

Powered by AerisWeather